Location: Alpine Heights
(32.8181°N, 116.7809°W)
Time: 23:08:57
(UTC+00:00)

ARIANE 5 R/B - Pass Details

Date: 14 April 2021
Orbit: 749 x 794 km, 98.7° (Epoch: 15 May)

Event Time Altitude Azimuth Distance (km) Brightness Sun altitude
Rises 12:16:35 0° 348° (NNW) 3,299 5.9 -13.3°
Reaches altitude 10° 12:20:23 10° 320° (NW) 2,365 4.8 -12.5°
Maximum altitude 12:22:25 12° 296° (WNW) 2,200 4.5 -12.1°
Enters shadow 12:23:43 11° 281° (W) 2,264 4.4 -11.9°
